Weather History for PHNG - October, 2012

Change the Weather History Date:

Monday, October 8, 2012

  Actual Average Record
Temperature  
Mean Temperature 88 °F -  
Max Temperature 100 °F 81 °F 100 °F (2012)
Min Temperature 75 °F 71 °F 71 °F (2004)
Cooling Degree Days 22    
Growing Degree Days 38 (Base 50)    
Moisture  
Dew Point 70 °F    
Average Humidity 70    
Maximum Humidity 84    
Minimum Humidity 34    
Precipitation  
Precipitation 0.00 in - - ()
Sea Level Pressure  
Sea Level Pressure 29.90 in    
Wind  
Wind Speed 8 mph (SSW)    
Max Wind Speed 14 mph    
Max Gust Speed -    
Visibility 10 miles    
Events Rain    
Averages and records for this station are not official NWS values.
T = Trace of Precipitation, MM = Missing Value Source: NWS Daily Summary

Daily Weather History Graph

Daily Weather History Graph

Search for Another Location

Airport or City:

Trip Planner

Search our weather history database for the weather conditions in past years. The results will help you decide how hot, cold, wet, or windy it might be!

Date:

Astronomy

Oct. 08, 2012 Rise Set
Actual Time 6:24 AM HST 6:11 PM HST
Civil Twilight 6:02 AM HST 6:34 PM HST
Nautical Twilight 5:36 AM HST 6:59 PM HST
Astronomical Twilight 5:10 AM HST 7:25 PM HST
Moon 12:01 AM HST (10/8) 1:24 PM HST (10/8)
Length of Visible Light 12h 31m
Length of Day
11h 47m
Last Quarter, 44% of the Moon is Illuminated
Oct 8
Last Quarter
Oct 15
New
Oct 21
First Quarter
Oct 29
Full
Nov 6
Last Quarter

Hourly Weather History & Observations

Time (HST) Temp. Heat Index Dew Point Humidity Pressure Visibility Wind Dir Wind Speed Gust Speed Precip Events Conditions
12:57 AM 75.0 °F - 70.0 °F 84% 29.88 in 10.0 mi SSW 6.9 mph - 0.00 in   Overcast
1:57 AM 77.5 °F - 70.0 °F 77% 29.87 in 10.0 mi SSW 8.1 mph - 0.00 in   Overcast
2:57 AM 77.4 °F - 70.0 °F 78% 29.86 in 10.0 mi SW 9.2 mph - 0.00 in Rain Light Rain
3:57 AM 75.9 °F - 70.0 °F 82% 29.85 in 10.0 mi SSW 11.5 mph - 0.00 in   Overcast
4:57 AM 77.7 °F - 70.0 °F 77% 29.86 in 10.0 mi SW 6.9 mph - N/A   Scattered Clouds
5:57 AM 77.5 °F - 70.7 °F 79% 29.88 in 10.0 mi SSW 9.2 mph - N/A   Mostly Cloudy
6:57 AM 76.1 °F - 69.4 °F 80% 29.88 in 10.0 mi SSW 13.8 mph - N/A   Clear
7:57 AM 76.8 °F - 69.1 °F 77% 29.89 in 10.0 mi SSW 11.5 mph - N/A   Clear
8:57 AM 97.0 °F 102.8 °F 69.1 °F 40% 29.91 in 10.0 mi SW 11.5 mph - N/A   Partly Cloudy
9:57 AM 78.8 °F - 69.1 °F 72% 29.93 in 10.0 mi SSW 6.9 mph - N/A   Partly Cloudy
10:57 AM 86.0 °F 91.8 °F 71.6 °F 62% 29.93 in 10.0 mi SSW 9.2 mph - N/A   Scattered Clouds
11:57 AM 100.9 °F 106.7 °F 68.0 °F 34% 29.91 in 10.0 mi SSW 11.5 mph - N/A   Clear
12:57 PM 86.0 °F 89.4 °F 68.0 °F 55% 29.90 in 10.0 mi SSW 12.7 mph - N/A   Partly Cloudy
1:57 PM 86.0 °F 91.8 °F 71.6 °F 62% 29.88 in 10.0 mi SSW 12.7 mph - N/A   Scattered Clouds
2:57 PM 86.0 °F 89.4 °F 68.0 °F 55% 29.87 in 10.0 mi SSW 10.4 mph - N/A   Clear
3:57 PM 84.2 °F 89.6 °F 71.6 °F 66% 29.88 in 10.0 mi SSW 10.4 mph - N/A   Scattered Clouds
4:57 PM 84.2 °F 89.6 °F 71.6 °F 66% 29.88 in 10.0 mi SSW 9.2 mph - N/A   Scattered Clouds
5:57 PM 80.6 °F 83.9 °F 69.8 °F 70% 29.90 in 10.0 mi SSW 9.2 mph - N/A   Scattered Clouds
6:57 PM 78.8 °F - 71.6 °F 78% 29.92 in 10.0 mi South 5.8 mph - N/A   Scattered Clouds
7:57 PM 78.8 °F - 71.6 °F 78% 29.95 in 10.0 mi SSE 4.6 mph - N/A   Partly Cloudy
8:57 PM 77.7 °F - 71.6 °F 81% 29.96 in 10.0 mi South 3.5 mph - N/A   Partly Cloudy
9:57 PM 77.2 °F - 69.1 °F 76% 29.96 in 10.0 mi SE 3.5 mph - N/A   Clear
10:57 PM 75.9 °F - 69.1 °F 79% 29.96 in 10.0 mi Calm Calm - N/A   Clear
11:57 PM 75.9 °F - 69.1 °F 79% 29.95 in 10.0 mi Calm Calm - N/A   Clear